Flag for U.S.A. Weather past 2 weeks in Irvine, California, U.S.A.

Now
75 °F

Passing clouds.


Feels Like: 77 °F
Forecast: 69 / 80 °F
Wind: 6 mph from West

Location: John Wayne Airport-Orange County Airport

Current Time: Sep 18, 2014 at 7:40:53 PM

Latest Report: Sep 18, 2014 at 6:53 PM


Visibility: 10 mi

Pressure: 29.82 "Hg

Humidity: 71%

Dew point: 65 °F

Location of IrvineLocation

Historic Weather in Irvine — Graph

°F

Irvine temperature yesterday

Maximum temperature yesterday: 93 °F (at 9:53 AM)
Minimum temperature yesterday: 75 °F (at 11:53 PM)
Average temperature yesterday: 84 °F

Past Weeks' High & Low Weather Summary

 TemperatureHumidityPressure
High99 °F (Sep 16, 4:53 PM)81% (Sep 12, 4:53 AM)29.92 "Hg (Sep 12, 4:53 AM)
Low69 °F (Sep 10, 3:53 AM)24% (Sep 16, 3:53 PM)29.67 "Hg (Sep 14, 4:53 PM)
Average80 °F58%29.79 "Hg
* Reported Sep 3 5:53 PM — Sep 18 5:53 PM, Irvine, Weather by CustomWeather, © 2014

Note: Actual official high and low records may vary slightly from our data, if they occured in-between our weather recording intervals... More about our weather records

Advertising

Irvine weather history for previous 24 hours

 ConditionsComfort  
Time TempWeatherWind HumidityBarometerVisibility
5:53 PM
Sep 18
77 °FPassing clouds.7 mph66%29.81 "Hg10 mi
4:53 PM79 °FPassing clouds.9 mph62%29.81 "Hg10 mi
3:53 PM81 °FPassing clouds.8 mph56%29.81 "Hg10 mi
2:53 PM80 °FScattered clouds.7 mph60%29.83 "Hg10 mi
1:53 PM80 °FScattered clouds.8 mph60%29.85 "Hg10 mi
12:53 PM80 °FScattered clouds.8 mph58%29.86 "Hg10 mi
11:53 AM78 °FBroken clouds.6 mph62%29.88 "Hg10 mi
10:53 AM80 °FScattered clouds.9 mph56%29.89 "Hg10 mi
9:53 AM77 °FScattered clouds.6 mph62%29.89 "Hg10 mi
8:53 AM76 °FScattered clouds.3 mph58%29.88 "Hg10 mi
7:53 AM73 °FScattered clouds.3 mph69%29.86 "Hg10 mi
6:53 AM71 °FPassing clouds.3 mph68%29.84 "Hg10 mi
5:53 AM71 °FClear.3 mph66%29.82 "Hg10 mi
4:53 AM71 °FClear.5 mph76%29.80 "Hg10 mi
3:53 AM72 °FClear.No wind71%29.79 "Hg10 mi
2:53 AM73 °FClear.3 mph71%29.80 "Hg9 mi
1:53 AM74 °FClear.3 mph71%29.79 "Hg10 mi
12:53 AM74 °FClear.No wind71%29.80 "Hg10 mi
11:53 PM
Sep 17
75 °FClear.No wind69%29.79 "Hg10 mi
10:53 PM76 °FPassing clouds.3 mph67%29.78 "Hg10 mi
9:53 PM77 °FPassing clouds.5 mph64%29.78 "Hg10 mi
8:53 PM78 °FPassing clouds.6 mph60%29.77 "Hg10 mi
7:53 PM79 °FScattered clouds.5 mph62%29.74 "Hg10 mi
Weather by CustomWeather, © 2014

See weather overviewHow to use our weather pages